Cosmos 1437 Rocket - Orbit

View from above orbital plane
View from above orbital plane
View from above satellite
View from above satellite

Ground track
Ground track

The orbit data is extracted from the following two-line orbital elements,

1 13771U 83003B   13168.30420706  .00000511  00000-0  34548-4 0  7807
2 13771 081.1575 241.8611 0033272 148.0409 212.2841 15.04342649653668
Epoch (UTC): 17 June 2013 07:18:03
Eccentricity: 0.0033272
inclination: 81.1575°
perigee height: 530 km
apogee height: 576 km
right ascension of ascending node: 241.8611°
argument of perigee: 148.0409°
revolutions per day: 15.04342649
mean anomaly at epoch: 212.2841°
orbit number at epoch: 65366

The dashed part of the orbit path shows where the satellite is in the earth's shadow,  

Developed and maintained by Chris Peat, Heavens-Above GmbH. Please read the updated FAQ before sending e-mail. Imprint. DLR